User: anonymous   Login
Location: Unspecified
(0.0000°N, 0.0000°E)
Time: 12:37:44
(UTC+00:00)
Language:

Galileo 5 - Orbit

View from above orbital plane
View from above orbital plane
View from above satellite
View from above satellite

Ground track
Ground track

The orbit data is extracted from the following two-line orbital elements,

1 40128U 14050A   17087.20873138 -.00000045 +00000-0 +00000-0 0  9990
2 40128 050.2643 048.4582 1616289 060.6701 314.4612 01.85519028015861
Epoch (UTC): 28 March 2017 05:00:34
Eccentricity: 0.1616289
inclination: 50.2643°
perigee height: 17077 km
apogee height: 26121 km
right ascension of ascending node: 48.4582°
argument of perigee: 60.6701°
revolutions per day: 1.85519028
mean anomaly at epoch: 314.4612°
orbit number at epoch: 1586

The dashed part of the orbit path shows where the satellite is in the earth's shadow,  

DLR